Location: Völsergasse
(47.2500°N, 11.2333°E)
Time: 15:59:22
(UTC+00:00)

Daily predictions for brighter satellites

Satellite Brightness Start Highest point End
(mag) Time Altitude Azimuth Time Altitude Azimuth Time Altitude Azimuth
ATLAS 2AS CENTAUR R/B 3.0 19:39:56 10° NW 19:47:07 68° NE 19:53:47 10° SE
Meteor 2-5 Rocket 3.8 19:44:57 10° S 19:50:22 60° E 19:55:50 10° NNE
FALCON 9 DEB 4.5 19:48:49 10° W 19:51:55 40° NNW 19:55:03 10° NE
Cosmos 1980 Rocket 4.4 19:49:07 10° N 19:52:11 14° NE 19:55:14 10° ENE
Cosmos 1025 Rocket 3.1 19:48:31 10° S 19:52:42 58° E 19:56:56 10° NNE
USA 234 4.5 19:47:33 10° ENE 19:53:35 41° N 19:59:37 10° WNW
Spot 2 Rocket 4.3 19:49:09 10° SE 19:53:47 37° ENE 19:58:27 10° N
Cosmos 1697 Rocket 4.3 19:50:36 10° N 19:55:01 23° NE 19:59:23 10° E
Cosmos 1455 Rocket 3.1 19:54:14 10° N 19:58:37 90° WSW 20:02:56 10° S
Cosmos 1371 Rocket 4.0 19:54:48 10° SSW 20:00:01 76° ESE 20:05:20 10° NNE
Cosmos 1656 4.4 19:55:47 10° NNW 20:00:58 41° NE 20:06:10 10° SE
Cosmos 2315 Rocket 4.1 19:55:48 10° S 20:02:06 74° E 20:08:23 10° NNE
SL-24 R/B 4.2 19:57:51 10° SSE 20:02:07 84° ENE 20:06:54 10° NNW
CZ-4B R/B 1.0 19:59:16 10° NNE 20:02:10 90° SSE 20:05:02 10° SSW
Cosmos 1709 Rocket 4.1 19:58:29 10° N 20:04:42 87° W 20:10:59 10° S
ARIANE 5 R/B 4.1 20:04:09 10° ESE 20:07:42 24° ENE 20:11:14 10° NNE
IRAS Rocket 4.3 20:06:04 10° NNE 20:11:42 73° ESE 20:17:15 10° S
MetOp-B 4.3 20:07:40 10° SSE 20:13:01 82° WSW 20:18:25 10° NNW
Cosmos 1607 3.9 20:07:58 10° SSW 20:14:12 86° SE 20:20:25 10° NE
USA 245 3.4 20:11:21 10° SSE 20:16:00 77° ENE 20:19:42 10° N
SL-8 R/B 3.9 20:12:42 10° W 20:17:32 78° N 20:22:22 10° E
NOSS 2-1 (E) 4.1 20:14:27 10° NW 20:18:59 79° NE 20:25:05 12° SE
Cosmos 1624 Rocket 4.2 20:14:44 10° SSW 20:19:58 81° WNW 20:25:13 10° NNE
Cosmos 1833 Rocket 3.8 20:18:47 10° SSE 20:23:16 25° ESE 20:27:47 10° NE
Meteor 1-24 Rocket 3.7 20:18:36 10° SSW 20:23:55 84° WNW 20:29:24 10° N
Cosmos 2228 4.1 20:20:21 10° N 20:24:05 29° ENE 20:27:15 13° SE
Cosmos 1536 Rocket 3.9 20:22:47 10° SSE 20:26:53 45° E 20:31:02 10° NNE
ERS-1 Rocket 3.1 20:23:27 11° SSE 20:28:09 62° ENE 20:33:09 10° N
Cosmos 2084 3.5 20:24:53 10° SW 20:28:43 70° NW 20:32:35 10° NE
H-2A R/B 3.7 20:24:46 10° N 20:28:49 37° WNW 20:32:55 10° SW
Cosmos 1975 Rocket 4.2 20:28:55 10° SSW 20:33:11 45° WNW 20:37:28 10° N
CARTOSAT-1 4.1 20:29:25 10° S 20:33:38 56° W 20:37:54 10° NNW
SPOT 3 Rocket 3.8 20:29:04 10° S 20:34:13 70° WSW 20:39:27 10° NNW
Cosmos 2056 Rocket 4.3 20:35:44 10° SW 20:41:01 56° WNW 20:46:23 10° NNE
Cosmos 2154 Rocket 4.4 20:35:31 10° N 20:41:35 50° ENE 20:46:31 15° SSE
ATLAS 5 CENTAUR R/B 4.2 20:33:12 10° NW 20:44:31 39° WSW 20:48:19 11° S
Cosmos 1741 Rocket 4.2 20:41:08 10° NNW 20:46:26 64° ENE 20:50:33 17° SE
Cosmos 1271 Rocket 3.4 20:42:40 10° NNW 20:46:34 54° W 20:50:15 11° S
Cosmos 2082 Rocket 3.8 20:46:10 14° SE 20:48:24 17° E 20:52:00 10° ENE
Cosmos 1544 Rocket 4.3 20:46:18 10° NNW 20:50:30 50° W 20:54:41 10° SSW
Lacrosse 5 rocket 2.8 20:48:51 10° WNW 20:52:03 24° SW 20:54:36 14° S
USA 102 3.5 20:05:18 10° ESE 20:52:08 82° ENE 21:32:41 10° WNW
Tiangong 2.7 20:50:57 10° WSW 20:53:17 19° SSW 20:53:52 18° S
Cosmos 724 4.3 20:47:55 10° SW 20:53:45 85° NW 20:59:35 10° NE
Helios 1A Rocket 3.2 20:53:26 15° S 20:56:47 63° WSW 21:00:52 10° NNW
USA 276 2.1 20:56:04 10° WSW 20:59:04 73° NNW 21:02:04 10° ENE
SPOT 5 3.0 20:55:22 13° S 20:59:11 59° WSW 21:03:29 10° NNW
X-37B 0.4 20:56:58 10° WSW 20:59:43 53° S 21:01:12 23° ESE
USA 267 3.4 20:55:01 10° ENE 21:01:18 49° SE 21:07:36 10° SSW
RESURS DK-1 2.3 21:04:06 10° NNW 21:08:15 83° ENE 21:10:41 24° SSE
Resurs 01 Rocket 4.3 21:10:17 10° WSW 21:12:13 13° W 21:14:09 10° WNW
Cosmos 1455 4.0 21:10:01 10° NNW 21:13:15 26° W 21:16:27 10° SSW
Cosmos 2184 Rocket 4.1 21:07:28 10° NNW 21:13:38 73° W 21:18:45 16° S
Cosmos 1850 Rocket 4.1 21:10:46 10° NNW 21:15:58 73° WSW 21:19:26 21° S
Cosmos 2344 4.4 21:09:25 10° NW 21:18:10 74° NE 21:28:41 15° SE
Terra 2.4 21:21:16 17° S 21:24:46 51° W 21:29:26 10° NNW
Lacrosse 5 3.0 21:21:43 10° WNW 21:26:09 31° SW 21:28:44 20° S
COSMOS 2406 3.5 21:25:53 20° S 21:29:36 50° ESE 21:35:08 10° NE
Cosmos 1331 Rocket 4.0 21:25:33 14° SSW 21:30:10 81° ESE 21:35:30 10° NNE
SL-16 R/B 4.3 21:27:00 10° N 21:31:06 20° NE 21:35:11 10° E
Cosmos 2369 4.1 21:25:37 10° NNW 21:31:17 58° ENE 21:34:58 22° SE
Cosmos 2341 Rocket 4.3 21:27:37 10° N 21:33:53 59° ENE 21:37:44 24° SSE
Cosmos 2058 Rocket 3.6 21:30:27 10° N 21:34:43 47° ENE 21:36:44 27° SE
Cosmos 1892 Rocket 3.7 21:33:27 28° SSE 21:35:33 57° E 21:39:52 10° NNE
USA 234 3.5 21:29:35 10° ESE 21:36:04 70° NNE 21:42:35 10° NW
Cosmos 1980 Rocket 2.6 21:31:50 10° NNW 21:37:30 58° ENE 21:41:03 22° SE
ATLAS 2AS CENTAUR R/B 3.9 21:31:35 10° NW 21:37:30 30° WSW 21:41:57 15° SSW
Cosmos 1892 3.4 21:38:17 30° SE 21:39:14 36° E 21:42:42 10° NNE
Cosmos 1697 Rocket 2.7 21:33:58 10° NNW 21:39:36 76° WSW 21:42:50 26° SSE
Cosmos 1900 4.4 21:34:55 10° NW 21:40:07 88° WSW 21:42:53 28° SSE
Cosmos 1452 Rocket 4.4 21:37:24 10° SW 21:42:31 50° WNW 21:47:38 10° NNE
ARIANE 5 R/B 3.5 21:41:11 20° SSW 21:43:55 42° W 21:48:09 10° NNW
Cosmos 1408 2.7 21:44:51 40° SE 21:45:37 50° E 21:48:58 10° NNE
Meteor 1-11 4.2 21:49:11 26° S 21:52:21 68° E 21:57:54 10° NNE
GP-B 3.0 21:48:54 10° N 21:53:21 78° E 21:55:18 33° S
Cosmos 1110 Rocket 4.4 21:48:12 10° SW 21:53:24 62° WNW 21:58:41 10° NNE
SAR-Lupe-4 3.7 21:50:10 10° N 21:53:45 73° WNW 21:55:20 31° SSW
Cosmos 1867 3.9 21:51:14 10° NNW 21:56:41 61° NE 22:00:06 23° ESE
Cosmos 1302 Rocket 3.9 21:54:27 27° S 21:57:18 69° ESE 22:02:29 10° NNE
Cosmos 1328 4.4 21:55:44 23° SSW 21:58:03 54° WNW 22:02:01 10° N
SL-8 R/B 3.8 21:55:18 10° WNW 22:00:02 58° SSW 22:02:03 32° SE
Spot 4 4.0 22:00:14 31° SE 22:02:25 63° ENE 22:07:10 10° N
Cosmos 2181 Rocket 4.0 22:02:46 28° SSE 22:06:04 65° E 22:12:13 10° NNE
Cosmos 1833 Rocket 3.3 22:01:18 10° SW 22:06:48 56° WNW 22:12:22 10° NNE
Cosmos 2084 Rocket 3.1 22:04:12 10° NW 22:08:07 84° SW 22:09:23 42° SSE
Cosmos 192 4.3 22:05:45 24° SSW 22:08:42 85° WNW 22:13:38 10° NNE
ATLAS 5 CENTAUR R/B 2.8 22:10:07 21° E 22:10:07 21° E 22:12:37 10° ENE
Cosmos 2322 Rocket 4.0 22:05:06 10° N 22:09:47 26° NE 22:14:29 10° ESE
Okean 1-7 Rocket 3.8 22:11:18 38° SSE 22:12:44 56° E 22:17:08 10° NNE
SJ 16-02 3.5 22:10:03 10° N 22:13:18 20° NE 22:16:14 11° E
Cosmos 2278 3.9 22:09:55 10° NNW 22:15:39 68° ENE 22:18:43 28° SE
Cosmos 968 Rocket 3.7 22:19:55 10° NNW 22:25:02 60° WSW 22:27:10 34° S
Cosmos 2082 Rocket 2.3 22:27:58 22° SSW 22:31:46 81° WNW 22:37:30 10° NNE
ASTEX 1 4.4 22:27:23 10° N 22:32:06 42° WNW 22:35:10 20° SW
ADEOS Rocket 3.5 22:30:44 28° SSE 22:34:56 80° ENE 22:42:38 10° NNW
USA 276 3.0 22:32:03 10° WNW 22:34:58 47° N 22:37:51 10° ENE
X-37B 3.2 22:32:22 10° W 22:32:25 10° W 22:32:25 10° W
Cosmos 1825 2.1 22:38:06 52° SSW 22:38:56 78° W 22:42:42 10° N
Cosmos 1758 Rocket 4.1 22:37:57 37° SE 22:38:59 45° E 22:43:10 10° NNE
Cosmos 1932 4.4 22:35:39 28° SSW 22:39:03 69° ESE 22:45:21 10° NE
Nadezhda 3 Rocket 4.4 22:37:36 29° SE 22:40:19 48° E 22:46:11 10° NNE
ERS-2 2.9 22:37:54 10° NNE 22:41:14 35° E 22:41:23 35° ESE
USA 267 3.6 22:38:01 10° NE 22:44:30 66° NNW 22:50:57 10° WSW
Cosmos 2360 Rocket 3.7 22:43:42 10° NNW 22:48:45 31° NE 22:53:45 10° ESE
Cosmos 1812 Rocket 3.5 22:45:33 10° N 22:50:03 80° E 22:51:22 45° SSE
Cosmos 1633 2.3 22:51:55 68° SE 22:52:12 74° E 22:55:41 10° NNE
ALOS 2 2.7 22:53:39 44° SSW 22:54:52 65° WSW 22:59:15 10° NNW
H-2A R/B 3.5 22:51:35 10° N 22:55:47 73° WNW 22:57:07 42° SSW
Cosmos 1606 3.0 22:56:43 10° N 23:00:31 56° ENE 23:01:19 46° SE
Cosmos 1486 Rocket 4.1 22:56:47 10° NNW 23:01:57 64° WSW 23:03:45 39° S
Cosmos 1602 Rocket 3.5 23:02:19 45° SSW 23:03:34 76° W 23:07:54 10° N
FALCON 9 DEB 3.5 23:02:10 10° WNW 23:05:25 59° NNE 23:06:29 36° E
Celestis-02/Orion 38 4.5 23:04:13 38° SSE 23:06:14 78° WSW 23:11:21 10° NNW
Cosmos 1869 4.3 23:04:27 10° NNW 23:07:58 34° W 23:08:43 31° WSW
Cosmos 1992 Rocket 4.3 23:09:46 28° SW 23:12:28 63° WNW 23:17:41 10° NNE
BREEZE-M DEB (TANK) 4.2 23:08:52 10° WNW 23:12:36 88° NNE 23:29:08 10° ESE
SL-16 R/B 2.1 23:10:19 10° NNW 23:16:03 88° ENE 23:18:41 33° SSE
Cosmos-2242 3.1 23:15:02 10° NNW 23:19:14 63° W 23:20:11 48° SSW
Cosmos 2058 3.1 23:18:20 48° SSE 23:19:15 62° E 23:23:24 10° NNE
USA 234 3.6 23:16:55 32° S 23:19:18 44° SW 23:25:32 10° WNW
Cosmos 1980 Rocket 3.5 23:16:32 10° NW 23:21:05 25° WSW 23:22:48 22° SW
Cosmos 1354 Rocket 4.0 23:21:34 10° NNW 23:26:54 79° WSW 23:28:55 39° S
Cosmos 1953 Rocket 3.9 23:27:02 41° SE 23:28:14 55° E 23:32:35 10° NNE
Cosmos 2219 Rocket 3.9 23:23:33 10° N 23:28:27 29° NE 23:33:20 10° ESE
CZ-2D R/B 4.3 23:26:48 10° ENE 23:29:06 13° E 23:31:25 10° ESE
Gbstr 26 Del rocket 4.2 23:34:00 29° SE 23:34:00 29° SE 23:38:28 10° ENE
Resurs 1-4 Rocket 4.3 23:31:00 10° NE 23:34:03 15° E 23:36:57 10° ESE
BREEZE-M DEB (TANK) 3.3 23:28:51 10° WSW 23:37:07 77° NNW 23:40:02 10° ENE
Cosmos 1503 Rocket 4.3 23:33:57 10° NNW 23:39:05 51° WSW 23:40:43 37° SSW
Cosmos 1825 Rocket 3.5 23:39:29 46° SSW 23:40:40 72° W 23:45:00 10° N
Cosmos 1340 Rocket 2.7 23:41:37 55° SSE 23:42:22 72° E 23:46:19 10° NNE
Cosmos 1934 Rocket 3.9 23:36:22 10° N 23:42:29 88° W 23:45:24 33° S
Meteor 2-2 Rocket 4.3 23:36:49 10° NNW 23:42:50 82° W 23:45:37 34° S
BREEZE-M DEB (TANK) 2.7 23:45:28 56° SSE 23:45:32 56° SSE 23:51:12 10° ENE
Cosmos 972 Rocket 4.1 23:42:44 10° NNW 23:47:50 74° ENE 23:50:43 28° SSE
Geosat 4.3 23:46:28 21° SE 23:49:49 64° ENE 23:54:48 10° NNW
SJ 16-02 1.6 23:47:52 10° NNW 23:52:12 54° WSW 23:53:10 44° SSW
Cosmos 1777 Rocket 4.0 23:47:38 10° NNW 23:52:55 72° WSW 23:55:00 37° S
ATLAS 5 CENTAUR R/B 2.4 23:51:32 21° W 23:53:39 41° NW 23:57:44 10° NNE
Cosmos 2322 Rocket 2.2 23:48:42 10° NNW 23:54:20 67° WSW 23:56:45 35° S
COSMOS 2487 4.2 23:55:07 18° E 23:55:07 18° E 23:57:13 10° NE
